Year,Month,Day,Hour,Minute,Value (Times are PST for temperature in C)
2014,08,28,00,00,18.40
2014,08,28,00,01,18.40
2014,08,28,00,02,18.40
2014,08,28,00,03,18.30
2014,08,28,00,04,18.30
2014,08,28,00,05,18.30
2014,08,28,00,06,18.30
2014,08,28,00,07,18.30
2014,08,28,00,08,18.30
2014,08,28,00,09,18.30
2014,08,28,00,10,18.20
2014,08,28,00,11,18.20
2014,08,28,00,12,18.20
2014,08,28,00,13,18.20
2014,08,28,00,14,18.20
2014,08,28,00,15,18.20
2014,08,28,00,16,18.20
2014,08,28,00,17,18.20
2014,08,28,00,18,18.20
2014,08,28,00,19,18.10
2014,08,28,00,20,18.10
2014,08,28,00,21,18.10
2014,08,28,00,22,18.10
2014,08,28,00,23,18.10
2014,08,28,00,24,18.10
2014,08,28,00,25,18.10
2014,08,28,00,26,18.00
2014,08,28,00,27,18.00
2014,08,28,00,28,18.00
2014,08,28,00,29,18.00
2014,08,28,00,30,18.00
2014,08,28,00,31,17.90
2014,08,28,00,32,17.90
2014,08,28,00,33,17.80
2014,08,28,00,34,17.80
2014,08,28,00,35,17.80
2014,08,28,00,36,17.70
2014,08,28,00,37,17.70
2014,08,28,00,38,17.70
2014,08,28,00,39,17.60
2014,08,28,00,40,17.60
2014,08,28,00,41,17.60
2014,08,28,00,42,17.60
2014,08,28,00,43,17.50
2014,08,28,00,44,17.50
2014,08,28,00,45,17.50
2014,08,28,00,46,17.40
2014,08,28,00,47,17.40
2014,08,28,00,48,17.40
2014,08,28,00,49,17.40
2014,08,28,00,50,17.40
2014,08,28,00,51,17.40
2014,08,28,00,52,17.40
2014,08,28,00,53,17.40
2014,08,28,00,54,17.40
2014,08,28,00,55,17.40
2014,08,28,00,56,17.40
2014,08,28,00,57,17.40
2014,08,28,00,58,17.30
2014,08,28,00,59,17.30
2014,08,28,01,00,17.30
2014,08,28,01,01,17.30
2014,08,28,01,02,17.30
2014,08,28,01,03,17.20
2014,08,28,01,04,17.20
2014,08,28,01,05,17.20
2014,08,28,01,06,17.20
2014,08,28,01,07,17.20
2014,08,28,01,08,17.20
2014,08,28,01,09,17.20
2014,08,28,01,10,17.20
2014,08,28,01,11,17.30
2014,08,28,01,12,17.30
2014,08,28,01,13,17.30
2014,08,28,01,14,17.30
2014,08,28,01,15,17.30
2014,08,28,01,16,17.30
2014,08,28,01,17,17.40
2014,08,28,01,18,17.40
2014,08,28,01,19,17.40
2014,08,28,01,20,17.40
2014,08,28,01,21,17.40
2014,08,28,01,22,17.40
2014,08,28,01,23,17.30
2014,08,28,01,24,17.30
2014,08,28,01,25,17.30
2014,08,28,01,26,17.30
2014,08,28,01,27,17.40
2014,08,28,01,28,17.40
2014,08,28,01,29,17.40
2014,08,28,01,30,17.30
2014,08,28,01,31,17.30
2014,08,28,01,32,17.20
2014,08,28,01,33,17.20
2014,08,28,01,34,17.10
2014,08,28,01,35,17.10
2014,08,28,01,36,17.10
2014,08,28,01,37,17.10
2014,08,28,01,38,17.10
2014,08,28,01,39,17.00
2014,08,28,01,40,17.00
2014,08,28,01,41,17.00
2014,08,28,01,42,17.00
2014,08,28,01,43,16.90
2014,08,28,01,44,16.90
2014,08,28,01,45,16.90
2014,08,28,01,46,16.90
2014,08,28,01,47,16.80
2014,08,28,01,48,16.80
2014,08,28,01,49,16.70
2014,08,28,01,50,16.70
2014,08,28,01,51,16.70
2014,08,28,01,52,16.60
2014,08,28,01,53,16.60
2014,08,28,01,54,16.60
2014,08,28,01,55,16.60
2014,08,28,01,56,16.50
2014,08,28,01,57,16.50
2014,08,28,01,58,16.50
2014,08,28,01,59,16.50
2014,08,28,02,00,16.50
2014,08,28,02,01,16.50
2014,08,28,02,02,16.50
2014,08,28,02,03,16.50
2014,08,28,02,04,16.60
2014,08,28,02,05,16.60
2014,08,28,02,06,16.60
2014,08,28,02,07,16.60
2014,08,28,02,08,16.60
2014,08,28,02,09,16.60
2014,08,28,02,10,16.60
2014,08,28,02,11,16.60
2014,08,28,02,12,16.60
2014,08,28,02,13,16.60
2014,08,28,02,14,16.60
2014,08,28,02,15,16.60
2014,08,28,02,16,16.60
2014,08,28,02,17,16.60
2014,08,28,02,18,16.60
2014,08,28,02,19,16.60
2014,08,28,02,20,16.60
2014,08,28,02,21,16.50
2014,08,28,02,22,16.50
2014,08,28,02,23,16.50
2014,08,28,02,24,16.50
2014,08,28,02,25,16.50
2014,08,28,02,26,16.60
2014,08,28,02,27,16.60
2014,08,28,02,28,16.60
2014,08,28,02,29,16.50
2014,08,28,02,30,16.50
2014,08,28,02,31,16.50
2014,08,28,02,32,16.40
2014,08,28,02,33,16.30
2014,08,28,02,34,16.30
2014,08,28,02,35,16.20
2014,08,28,02,36,16.20
2014,08,28,02,37,16.10
2014,08,28,02,38,16.10
2014,08,28,02,39,16.00
2014,08,28,02,40,16.00
2014,08,28,02,41,15.90
2014,08,28,02,42,15.90
2014,08,28,02,43,15.90
2014,08,28,02,44,15.80
2014,08,28,02,45,15.80
2014,08,28,02,46,15.80
2014,08,28,02,47,15.80
2014,08,28,02,48,15.80
2014,08,28,02,49,15.80
2014,08,28,02,50,15.80
2014,08,28,02,51,15.80
2014,08,28,02,52,15.80
2014,08,28,02,53,15.80
2014,08,28,02,54,15.80
2014,08,28,02,55,15.80
2014,08,28,02,56,15.80
2014,08,28,02,57,15.80
2014,08,28,02,58,15.70
2014,08,28,02,59,15.70
2014,08,28,03,00,15.70
2014,08,28,03,01,15.70
2014,08,28,03,02,15.70
2014,08,28,03,03,15.70
2014,08,28,03,04,15.70
2014,08,28,03,05,15.70
2014,08,28,03,06,15.70
2014,08,28,03,07,15.60
2014,08,28,03,08,15.60
2014,08,28,03,09,15.60
2014,08,28,03,10,15.60
2014,08,28,03,11,15.60
2014,08,28,03,12,15.60
2014,08,28,03,13,15.60
2014,08,28,03,14,15.60
2014,08,28,03,15,15.60
2014,08,28,03,16,15.60
2014,08,28,03,17,15.60
2014,08,28,03,18,15.60
2014,08,28,03,19,15.60
2014,08,28,03,20,15.60
2014,08,28,03,21,15.50
2014,08,28,03,22,15.50
2014,08,28,03,23,15.50
2014,08,28,03,24,15.50
2014,08,28,03,25,15.40
2014,08,28,03,26,15.40
2014,08,28,03,27,15.40
2014,08,28,03,28,15.40
2014,08,28,03,29,15.40
2014,08,28,03,30,15.30
2014,08,28,03,31,15.30
2014,08,28,03,32,15.30
2014,08,28,03,33,15.20
2014,08,28,03,34,15.20
2014,08,28,03,35,15.20
2014,08,28,03,36,15.20
2014,08,28,03,37,15.20
2014,08,28,03,38,15.20
2014,08,28,03,39,15.20
2014,08,28,03,40,15.20
2014,08,28,03,41,15.20
2014,08,28,03,42,15.20
2014,08,28,03,43,15.30
2014,08,28,03,44,15.30
2014,08,28,03,45,15.30
2014,08,28,03,46,15.30
2014,08,28,03,47,15.20
2014,08,28,03,48,15.20
2014,08,28,03,49,15.20
2014,08,28,03,50,15.20
2014,08,28,03,51,15.10
2014,08,28,03,52,15.10
2014,08,28,03,53,15.10
2014,08,28,03,54,15.10
2014,08,28,03,55,15.10
2014,08,28,03,56,15.10
2014,08,28,03,57,15.10
2014,08,28,03,58,15.10
2014,08,28,03,59,15.10
2014,08,28,04,00,15.10
2014,08,28,04,01,15.10
2014,08,28,04,02,15.10
2014,08,28,04,03,15.10
2014,08,28,04,04,15.10
2014,08,28,04,05,15.10
2014,08,28,04,06,15.10
2014,08,28,04,07,15.10
2014,08,28,04,08,15.10
2014,08,28,04,09,15.10
2014,08,28,04,10,15.10
2014,08,28,04,11,15.10
2014,08,28,04,12,15.10
2014,08,28,04,13,15.10
2014,08,28,04,14,15.10
2014,08,28,04,15,15.10
2014,08,28,04,16,15.10
2014,08,28,04,17,15.10
2014,08,28,04,18,15.10
2014,08,28,04,19,15.10
2014,08,28,04,20,15.10
2014,08,28,04,21,15.10
2014,08,28,04,22,15.10
2014,08,28,04,23,15.10
2014,08,28,04,24,15.10
2014,08,28,04,25,15.10
2014,08,28,04,26,15.10
2014,08,28,04,27,15.10
2014,08,28,04,28,15.10
2014,08,28,04,29,15.10
2014,08,28,04,30,15.10
2014,08,28,04,31,15.10
2014,08,28,04,32,15.10
2014,08,28,04,33,15.10
2014,08,28,04,34,15.10
2014,08,28,04,35,15.10
2014,08,28,04,36,15.10
2014,08,28,04,37,15.10
2014,08,28,04,38,15.10
2014,08,28,04,39,15.10
2014,08,28,04,40,15.10
2014,08,28,04,41,15.10
2014,08,28,04,42,15.10
2014,08,28,04,43,15.10
2014,08,28,04,44,15.10
2014,08,28,04,45,15.10
2014,08,28,04,46,15.10
2014,08,28,04,47,15.10
2014,08,28,04,48,15.10
2014,08,28,04,49,15.10
2014,08,28,04,50,15.10
2014,08,28,04,51,15.10
2014,08,28,04,52,15.10
2014,08,28,04,53,15.10
2014,08,28,04,54,15.10
2014,08,28,04,55,15.10
2014,08,28,04,56,15.20
2014,08,28,04,57,15.20
2014,08,28,04,58,15.20
2014,08,28,04,59,15.20
2014,08,28,05,00,15.30
2014,08,28,05,01,15.30
2014,08,28,05,02,15.30
2014,08,28,05,03,15.30
2014,08,28,05,04,15.40
2014,08,28,05,05,15.40
2014,08,28,05,06,15.50
2014,08,28,05,07,15.50
2014,08,28,05,08,15.60
2014,08,28,05,09,15.60
2014,08,28,05,10,15.70
2014,08,28,05,11,15.70
2014,08,28,05,12,15.80
2014,08,28,05,13,15.80
2014,08,28,05,14,15.90
2014,08,28,05,15,15.90
2014,08,28,05,16,15.90
2014,08,28,05,17,15.90
2014,08,28,05,18,15.90
2014,08,28,05,19,16.00
2014,08,28,05,20,16.00
2014,08,28,05,21,16.10
2014,08,28,05,22,16.10
2014,08,28,05,23,16.10
2014,08,28,05,24,16.10
2014,08,28,05,25,16.20
2014,08,28,05,26,16.20
2014,08,28,05,27,16.20
2014,08,28,05,28,16.20
2014,08,28,05,29,16.20
2014,08,28,05,30,16.20
2014,08,28,05,31,16.20
2014,08,28,05,32,16.30
2014,08,28,05,33,16.30
2014,08,28,05,34,16.30
2014,08,28,05,35,16.30
2014,08,28,05,36,16.30
2014,08,28,05,37,16.30
2014,08,28,05,38,16.30
2014,08,28,05,39,16.30
2014,08,28,05,40,16.30
2014,08,28,05,41,16.30
2014,08,28,05,42,16.30
2014,08,28,05,43,16.30
2014,08,28,05,44,16.30
2014,08,28,05,45,16.30
2014,08,28,05,46,16.30
2014,08,28,05,47,16.30
2014,08,28,05,48,16.30
2014,08,28,05,49,16.30
2014,08,28,05,50,16.30
2014,08,28,05,51,16.30
2014,08,28,05,52,16.30
2014,08,28,05,53,16.30
2014,08,28,05,54,16.30
2014,08,28,05,55,16.40
2014,08,28,05,56,16.40
2014,08,28,05,57,16.40
2014,08,28,05,58,16.30
2014,08,28,05,59,16.30
2014,08,28,06,00,16.30
2014,08,28,06,01,16.30
2014,08,28,06,02,16.30
2014,08,28,06,03,16.30
2014,08,28,06,04,16.30
2014,08,28,06,05,16.30
2014,08,28,06,06,16.30
2014,08,28,06,07,16.30
2014,08,28,06,08,16.30
2014,08,28,06,09,16.30
2014,08,28,06,10,16.30
2014,08,28,06,11,16.30
2014,08,28,06,12,16.30
2014,08,28,06,13,16.30
2014,08,28,06,14,16.30
2014,08,28,06,15,16.30
2014,08,28,06,16,16.30
2014,08,28,06,17,16.40
2014,08,28,06,18,16.40
2014,08,28,06,19,16.40
2014,08,28,06,20,16.40
2014,08,28,06,21,16.40
2014,08,28,06,22,16.50
2014,08,28,06,23,16.50
2014,08,28,06,24,16.50
2014,08,28,06,25,16.50
2014,08,28,06,26,16.50
2014,08,28,06,27,16.50
2014,08,28,06,28,16.50
2014,08,28,06,29,16.50
2014,08,28,06,30,16.50
2014,08,28,06,31,16.50
2014,08,28,06,32,16.50
2014,08,28,06,33,16.50
2014,08,28,06,34,16.50
2014,08,28,06,35,16.50
2014,08,28,06,36,16.50
2014,08,28,06,37,16.50
2014,08,28,06,38,16.60
2014,08,28,06,39,16.60
2014,08,28,06,40,16.60
2014,08,28,06,41,16.60
2014,08,28,06,42,16.60
2014,08,28,06,43,16.60
2014,08,28,06,44,16.60
2014,08,28,06,45,16.70
2014,08,28,06,46,16.70
2014,08,28,06,47,16.70
2014,08,28,06,48,16.70
2014,08,28,06,49,16.80
2014,08,28,06,50,16.80
2014,08,28,06,51,16.80
2014,08,28,06,52,16.80
2014,08,28,06,53,16.80
2014,08,28,06,54,16.80
2014,08,28,06,55,16.80
2014,08,28,06,56,16.80
2014,08,28,06,57,16.80
2014,08,28,06,58,16.80
2014,08,28,06,59,16.80
2014,08,28,07,00,16.80
2014,08,28,07,01,16.80
2014,08,28,07,02,16.80
2014,08,28,07,03,16.80
2014,08,28,07,04,16.80
2014,08,28,07,05,16.80
2014,08,28,07,06,16.80
2014,08,28,07,07,16.80
2014,08,28,07,08,16.80
2014,08,28,07,09,16.80
2014,08,28,07,10,16.80
2014,08,28,07,11,16.80
2014,08,28,07,12,16.80
2014,08,28,07,13,16.80
2014,08,28,07,14,16.80
2014,08,28,07,15,16.80
2014,08,28,07,16,16.90
2014,08,28,07,17,16.90
2014,08,28,07,18,16.90
2014,08,28,07,19,16.90
2014,08,28,07,20,16.90
2014,08,28,07,21,16.90
2014,08,28,07,22,16.90
2014,08,28,07,23,17.00
2014,08,28,07,24,17.00
2014,08,28,07,25,17.00
2014,08,28,07,26,17.00
2014,08,28,07,27,17.10
2014,08,28,07,28,17.10
2014,08,28,07,29,17.10
2014,08,28,07,30,17.20
2014,08,28,07,31,17.20
2014,08,28,07,32,17.30
2014,08,28,07,33,17.50
2014,08,28,07,34,17.60
2014,08,28,07,35,17.80
2014,08,28,07,36,17.90
2014,08,28,07,37,18.00
2014,08,28,07,38,18.20
2014,08,28,07,39,18.30
2014,08,28,07,40,18.40
2014,08,28,07,41,18.60
2014,08,28,07,42,18.70
2014,08,28,07,43,18.70
2014,08,28,07,44,18.80
2014,08,28,07,45,18.80
2014,08,28,07,46,18.80
2014,08,28,07,47,18.80
2014,08,28,07,48,18.80
2014,08,28,07,49,18.80
2014,08,28,07,50,18.80
2014,08,28,07,51,18.80
2014,08,28,07,52,18.80
2014,08,28,07,53,18.70
2014,08,28,07,54,18.70
2014,08,28,07,55,18.70
2014,08,28,07,56,18.70
2014,08,28,07,57,18.70
2014,08,28,07,58,18.70
2014,08,28,07,59,18.60
2014,08,28,08,00,18.60
2014,08,28,08,01,18.60
2014,08,28,08,02,18.60
2014,08,28,08,03,18.60
2014,08,28,08,04,18.60
2014,08,28,08,05,18.60
2014,08,28,08,06,18.60
2014,08,28,08,07,18.70
2014,08,28,08,08,18.70
2014,08,28,08,09,18.70
2014,08,28,08,10,18.70
2014,08,28,08,11,18.70
2014,08,28,08,12,18.80
2014,08,28,08,13,18.80
2014,08,28,08,14,18.80
2014,08,28,08,15,18.90
2014,08,28,08,16,18.90
2014,08,28,08,17,19.00
2014,08,28,08,18,19.10
2014,08,28,08,19,19.10
2014,08,28,08,20,19.20
2014,08,28,08,21,19.30
2014,08,28,08,22,19.30
2014,08,28,08,23,19.30
2014,08,28,08,24,19.30
2014,08,28,08,25,19.40
2014,08,28,08,26,19.40
2014,08,28,08,27,19.40
2014,08,28,08,28,19.40
2014,08,28,08,29,19.40
2014,08,28,08,30,19.40
2014,08,28,08,31,19.50
2014,08,28,08,32,19.60
2014,08,28,08,33,19.60
2014,08,28,08,34,19.60
2014,08,28,08,35,19.70
2014,08,28,08,36,19.70
2014,08,28,08,37,19.60
2014,08,28,08,38,19.60
2014,08,28,08,39,19.60
2014,08,28,08,40,19.60
2014,08,28,08,41,19.60
2014,08,28,08,42,19.60
2014,08,28,08,43,19.60
2014,08,28,08,44,19.60
2014,08,28,08,45,19.60
2014,08,28,08,46,19.60
2014,08,28,08,47,19.60
2014,08,28,08,48,19.50
2014,08,28,08,49,19.50
2014,08,28,08,50,19.50
2014,08,28,08,51,19.50
2014,08,28,08,52,19.50
2014,08,28,08,53,19.40
2014,08,28,08,54,19.40
2014,08,28,08,55,19.40
2014,08,28,08,56,19.40
2014,08,28,08,57,19.40
2014,08,28,08,58,19.40
2014,08,28,08,59,19.40
2014,08,28,09,00,19.40
2014,08,28,09,01,19.40
2014,08,28,09,02,19.40
2014,08,28,09,03,19.40
2014,08,28,09,04,19.40
2014,08,28,09,05,19.50
2014,08,28,09,06,19.50
2014,08,28,09,07,19.50
2014,08,28,09,08,19.50
2014,08,28,09,09,19.50
2014,08,28,09,10,19.50
2014,08,28,09,11,19.50
2014,08,28,09,12,19.50
2014,08,28,09,13,19.50
2014,08,28,09,14,19.50
2014,08,28,09,15,19.50
2014,08,28,09,16,19.60
2014,08,28,09,17,19.60
2014,08,28,09,18,19.60
2014,08,28,09,19,19.60
2014,08,28,09,20,19.70
2014,08,28,09,21,19.70
2014,08,28,09,22,19.70
2014,08,28,09,23,19.70
2014,08,28,09,24,19.80
2014,08,28,09,25,19.80
2014,08,28,09,26,19.80
2014,08,28,09,27,19.80
2014,08,28,09,28,19.90
2014,08,28,09,29,20.00
2014,08,28,09,30,20.00
2014,08,28,09,31,20.10
2014,08,28,09,32,20.20
2014,08,28,09,33,20.20
2014,08,28,09,34,20.20
2014,08,28,09,35,20.30
2014,08,28,09,36,20.30
2014,08,28,09,37,20.30
2014,08,28,09,38,20.30
2014,08,28,09,39,20.30
2014,08,28,09,40,20.30
2014,08,28,09,41,20.30
2014,08,28,09,42,20.30
2014,08,28,09,43,20.40
2014,08,28,09,44,20.40
2014,08,28,09,45,20.40
2014,08,28,09,46,20.50
2014,08,28,09,47,20.50
2014,08,28,09,48,20.40
2014,08,28,09,49,20.30
2014,08,28,09,50,20.30
2014,08,28,09,51,20.40
2014,08,28,09,52,20.50
2014,08,28,09,53,20.60
2014,08,28,09,54,20.60
2014,08,28,09,55,20.70
2014,08,28,09,56,20.70
2014,08,28,09,57,20.90
2014,08,28,09,58,21.00
2014,08,28,09,59,21.10
2014,08,28,10,00,21.10
2014,08,28,10,01,21.10
2014,08,28,10,02,21.00
2014,08,28,10,03,21.00
2014,08,28,10,04,21.00
2014,08,28,10,05,21.10
2014,08,28,10,06,21.00
2014,08,28,10,07,21.00
2014,08,28,10,08,21.00
2014,08,28,10,09,21.00
2014,08,28,10,10,21.00
2014,08,28,10,11,21.00
2014,08,28,10,12,20.90
2014,08,28,10,13,20.80
2014,08,28,10,14,20.80
2014,08,28,10,15,20.80
2014,08,28,10,16,20.70
2014,08,28,10,17,20.70
2014,08,28,10,18,20.70
2014,08,28,10,19,20.70
2014,08,28,10,20,20.80
2014,08,28,10,21,20.90
2014,08,28,10,22,20.90
2014,08,28,10,23,20.90
2014,08,28,10,24,21.00
2014,08,28,10,25,21.00
2014,08,28,10,26,21.10
2014,08,28,10,27,21.00
2014,08,28,10,28,20.90
2014,08,28,10,29,20.90
2014,08,28,10,30,21.00
2014,08,28,10,31,21.10
2014,08,28,10,32,21.20
2014,08,28,10,33,21.20
2014,08,28,10,34,21.20
2014,08,28,10,35,21.10
2014,08,28,10,36,21.00
2014,08,28,10,37,20.90
2014,08,28,10,38,20.90
2014,08,28,10,39,20.90
2014,08,28,10,40,20.80
2014,08,28,10,41,20.80
2014,08,28,10,42,20.80
2014,08,28,10,43,20.90
2014,08,28,10,44,21.00
2014,08,28,10,45,21.10
2014,08,28,10,46,21.30
2014,08,28,10,47,21.40
2014,08,28,10,48,21.60
2014,08,28,10,49,21.70
2014,08,28,10,50,21.80
2014,08,28,10,51,21.80
2014,08,28,10,52,21.60
2014,08,28,10,53,21.60
2014,08,28,10,54,21.50
2014,08,28,10,55,21.40
2014,08,28,10,56,21.50
2014,08,28,10,57,21.60
2014,08,28,10,58,21.60
2014,08,28,10,59,21.70
2014,08,28,11,00,21.80
2014,08,28,11,01,21.80
2014,08,28,11,02,21.70
2014,08,28,11,03,21.60
2014,08,28,11,04,21.60
2014,08,28,11,05,21.50
2014,08,28,11,06,21.30
2014,08,28,11,07,21.20
2014,08,28,11,08,21.10
2014,08,28,11,09,21.20
2014,08,28,11,10,21.20
2014,08,28,11,11,21.20
2014,08,28,11,12,21.30
2014,08,28,11,13,21.40
2014,08,28,11,14,21.60
2014,08,28,11,15,21.60
2014,08,28,11,16,21.70
2014,08,28,11,17,21.70
2014,08,28,11,18,21.60
2014,08,28,11,19,21.60
2014,08,28,11,20,21.50
2014,08,28,11,21,21.50
2014,08,28,11,22,21.40
2014,08,28,11,23,21.40
2014,08,28,11,24,21.20
2014,08,28,11,25,21.20
2014,08,28,11,26,21.10
2014,08,28,11,27,21.10
2014,08,28,11,28,21.10
2014,08,28,11,29,21.20
2014,08,28,11,30,21.40
2014,08,28,11,31,21.40
2014,08,28,11,32,21.40
2014,08,28,11,33,21.30
2014,08,28,11,34,21.20
2014,08,28,11,35,21.10
2014,08,28,11,36,21.10
2014,08,28,11,37,21.00
2014,08,28,11,38,20.90
2014,08,28,11,39,20.90
2014,08,28,11,40,21.10
2014,08,28,11,41,21.10
2014,08,28,11,42,21.00
2014,08,28,11,43,21.00
2014,08,28,11,44,21.10
2014,08,28,11,45,21.20
2014,08,28,11,46,21.30
2014,08,28,11,47,21.40
2014,08,28,11,48,21.30
2014,08,28,11,49,21.20
2014,08,28,11,50,21.20
2014,08,28,11,51,21.00
2014,08,28,11,52,20.90
2014,08,28,11,53,21.00
2014,08,28,11,54,21.00
2014,08,28,11,55,21.10
2014,08,28,11,56,21.10
2014,08,28,11,57,21.10
2014,08,28,11,58,21.20
2014,08,28,11,59,21.20
2014,08,28,12,00,21.20
2014,08,28,12,01,21.20
2014,08,28,12,02,21.10
2014,08,28,12,03,21.10
2014,08,28,12,04,21.00
2014,08,28,12,05,21.00
2014,08,28,12,06,20.90
2014,08,28,12,07,20.90
2014,08,28,12,08,20.90
2014,08,28,12,09,20.90
2014,08,28,12,10,21.10
2014,08,28,12,11,21.10
2014,08,28,12,12,21.10
2014,08,28,12,13,21.10
2014,08,28,12,14,21.10
2014,08,28,12,15,21.20
2014,08,28,12,16,21.30
2014,08,28,12,17,21.30
2014,08,28,12,18,21.30
2014,08,28,12,19,21.20
2014,08,28,12,20,21.20
2014,08,28,12,21,21.30
2014,08,28,12,22,21.40
2014,08,28,12,23,21.30
2014,08,28,12,24,21.20
2014,08,28,12,25,21.20
2014,08,28,12,26,21.40
2014,08,28,12,27,21.50
2014,08,28,12,28,21.60
2014,08,28,12,29,21.80
2014,08,28,12,30,22.00
2014,08,28,12,31,22.10
2014,08,28,12,32,22.00
2014,08,28,12,33,22.10
2014,08,28,12,34,22.10
2014,08,28,12,35,22.20
2014,08,28,12,36,22.20
2014,08,28,12,37,22.30
2014,08,28,12,38,22.50
2014,08,28,12,39,22.70
2014,08,28,12,40,22.70
2014,08,28,12,41,22.70
2014,08,28,12,42,22.70
2014,08,28,12,43,22.60
2014,08,28,12,44,22.50
2014,08,28,12,45,22.50
2014,08,28,12,46,22.60
2014,08,28,12,47,22.70
2014,08,28,12,48,22.70
2014,08,28,12,49,22.70
2014,08,28,12,50,22.70
2014,08,28,12,51,22.70
2014,08,28,12,52,22.70
2014,08,28,12,53,22.60
2014,08,28,12,54,22.60
2014,08,28,12,55,22.60
2014,08,28,12,56,22.60
2014,08,28,12,57,22.60
2014,08,28,12,58,22.60
2014,08,28,12,59,22.70
2014,08,28,13,00,22.70
2014,08,28,13,01,22.70
2014,08,28,13,02,22.70
2014,08,28,13,03,22.70
2014,08,28,13,04,22.60
2014,08,28,13,05,22.60
2014,08,28,13,06,22.80
2014,08,28,13,07,22.80
2014,08,28,13,08,22.80
2014,08,28,13,09,22.90
2014,08,28,13,10,22.90
2014,08,28,13,11,22.90
2014,08,28,13,12,23.00
2014,08,28,13,13,23.10
2014,08,28,13,14,23.20
2014,08,28,13,15,23.20
2014,08,28,13,16,23.10
2014,08,28,13,17,23.10
2014,08,28,13,18,23.20
2014,08,28,13,19,23.20
2014,08,28,13,20,23.10
2014,08,28,13,21,23.10
2014,08,28,13,22,23.10
2014,08,28,13,23,23.10
2014,08,28,13,24,23.10
2014,08,28,13,25,23.00
2014,08,28,13,26,23.00
2014,08,28,13,27,23.00
2014,08,28,13,28,23.00
2014,08,28,13,29,23.10
2014,08,28,13,30,23.20
2014,08,28,13,31,23.30
2014,08,28,13,32,23.40
2014,08,28,13,33,23.30
2014,08,28,13,34,23.30
2014,08,28,13,35,23.20
2014,08,28,13,36,23.20
2014,08,28,13,37,23.00
2014,08,28,13,38,22.80
2014,08,28,13,39,22.70
2014,08,28,13,40,22.70
2014,08,28,13,41,22.80
2014,08,28,13,42,22.90
2014,08,28,13,43,22.90
2014,08,28,13,44,22.90
2014,08,28,13,45,22.90
2014,08,28,13,46,22.80
2014,08,28,13,47,22.80
2014,08,28,13,48,22.70
2014,08,28,13,49,22.60
2014,08,28,13,50,22.40
2014,08,28,13,51,22.40
2014,08,28,13,52,22.40
2014,08,28,13,53,22.30
2014,08,28,13,54,22.40
2014,08,28,13,55,22.50
2014,08,28,13,56,22.70
2014,08,28,13,57,22.80
2014,08,28,13,58,22.80
2014,08,28,13,59,22.90
2014,08,28,14,00,22.90
2014,08,28,14,01,22.80
2014,08,28,14,02,22.60
2014,08,28,14,03,22.50
2014,08,28,14,04,22.30
2014,08,28,14,05,22.10
2014,08,28,14,06,22.00
2014,08,28,14,07,21.90
2014,08,28,14,08,21.80
2014,08,28,14,09,21.60
2014,08,28,14,10,21.50
2014,08,28,14,11,21.40
2014,08,28,14,12,21.30
2014,08,28,14,13,21.20
2014,08,28,14,14,21.10
2014,08,28,14,15,21.10
2014,08,28,14,16,21.10
2014,08,28,14,17,21.10
2014,08,28,14,18,21.10
2014,08,28,14,19,21.10
2014,08,28,14,20,21.10
2014,08,28,14,21,21.10
2014,08,28,14,22,21.10
2014,08,28,14,23,21.20
2014,08,28,14,24,21.30
2014,08,28,14,25,21.30
2014,08,28,14,26,21.40
2014,08,28,14,27,21.60
2014,08,28,14,28,21.80
2014,08,28,14,29,21.90
2014,08,28,14,30,21.90
2014,08,28,14,31,21.90
2014,08,28,14,32,22.00
2014,08,28,14,33,22.20
2014,08,28,14,34,22.30
2014,08,28,14,35,22.30
2014,08,28,14,36,22.20
2014,08,28,14,37,22.20
2014,08,28,14,38,22.20
2014,08,28,14,39,22.30
2014,08,28,14,40,22.40
2014,08,28,14,41,22.40
2014,08,28,14,42,22.40
2014,08,28,14,43,22.50
2014,08,28,14,44,22.60
2014,08,28,14,45,22.80
2014,08,28,14,46,22.80
2014,08,28,14,47,22.70
2014,08,28,14,48,22.50
2014,08,28,14,49,22.40
2014,08,28,14,50,22.30
2014,08,28,14,51,22.40
2014,08,28,14,52,22.50
2014,08,28,14,53,22.60
2014,08,28,14,54,22.60
2014,08,28,14,55,22.70
2014,08,28,14,56,22.90
2014,08,28,14,57,22.90
2014,08,28,14,58,23.00
2014,08,28,14,59,22.90
2014,08,28,15,00,22.90
2014,08,28,15,01,23.00
2014,08,28,15,02,23.00
2014,08,28,15,03,23.00
2014,08,28,15,04,23.10
2014,08,28,15,05,23.10
2014,08,28,15,06,23.00
2014,08,28,15,07,23.00
2014,08,28,15,08,23.00
2014,08,28,15,09,22.90
2014,08,28,15,10,22.80
2014,08,28,15,11,22.70
2014,08,28,15,12,22.70
2014,08,28,15,13,22.70
2014,08,28,15,14,22.80
2014,08,28,15,15,22.80
2014,08,28,15,16,22.80
2014,08,28,15,17,22.80
2014,08,28,15,18,22.80
2014,08,28,15,19,22.90
2014,08,28,15,20,22.80
2014,08,28,15,21,22.80
2014,08,28,15,22,22.70
2014,08,28,15,23,22.70
2014,08,28,15,24,22.70
2014,08,28,15,25,22.70
2014,08,28,15,26,22.70
2014,08,28,15,27,22.60
2014,08,28,15,28,22.60
2014,08,28,15,29,22.60
2014,08,28,15,30,22.60
2014,08,28,15,31,22.50
2014,08,28,15,32,22.40
2014,08,28,15,33,22.40
2014,08,28,15,34,22.30
2014,08,28,15,35,22.30
2014,08,28,15,36,22.20
2014,08,28,15,37,22.20
2014,08,28,15,38,22.30
2014,08,28,15,39,22.30
2014,08,28,15,40,22.30
2014,08,28,15,41,22.30
2014,08,28,15,42,22.40
2014,08,28,15,43,22.50
2014,08,28,15,44,22.40
2014,08,28,15,45,22.20
2014,08,28,15,46,22.10
2014,08,28,15,47,22.10
2014,08,28,15,48,22.10
2014,08,28,15,49,22.00
2014,08,28,15,50,21.90
2014,08,28,15,51,21.90
2014,08,28,15,52,21.70
2014,08,28,15,53,21.60
2014,08,28,15,54,21.50
2014,08,28,15,55,21.50
2014,08,28,15,56,21.50
2014,08,28,15,57,21.60
2014,08,28,15,58,21.60
2014,08,28,15,59,21.70
2014,08,28,16,00,21.80
2014,08,28,16,01,22.00
2014,08,28,16,02,22.10
2014,08,28,16,03,22.20
2014,08,28,16,04,22.20
2014,08,28,16,05,22.30
2014,08,28,16,06,22.20
2014,08,28,16,07,22.00
2014,08,28,16,08,21.80
2014,08,28,16,09,21.70
2014,08,28,16,10,21.60
2014,08,28,16,11,21.70
2014,08,28,16,12,21.70
2014,08,28,16,13,21.70
2014,08,28,16,14,21.70
2014,08,28,16,15,21.80
2014,08,28,16,16,21.90
2014,08,28,16,17,21.90
2014,08,28,16,18,22.00
2014,08,28,16,19,22.00
2014,08,28,16,20,22.00
2014,08,28,16,21,22.00
2014,08,28,16,22,22.00
2014,08,28,16,23,22.00
2014,08,28,16,24,22.10
2014,08,28,16,25,22.20
2014,08,28,16,26,22.20
2014,08,28,16,27,22.30
2014,08,28,16,28,22.30
2014,08,28,16,29,22.20
2014,08,28,16,30,22.20
2014,08,28,16,31,22.20
2014,08,28,16,32,22.10
2014,08,28,16,33,22.10
2014,08,28,16,34,22.10
2014,08,28,16,35,22.20
2014,08,28,16,36,22.20
2014,08,28,16,37,22.30
2014,08,28,16,38,22.30
2014,08,28,16,39,22.40
2014,08,28,16,40,22.40
2014,08,28,16,41,22.40
2014,08,28,16,42,22.30
2014,08,28,16,43,22.30
2014,08,28,16,44,22.30
2014,08,28,16,45,22.30
2014,08,28,16,46,22.30
2014,08,28,16,47,22.30
2014,08,28,16,48,22.30
2014,08,28,16,49,22.30
2014,08,28,16,50,22.30
2014,08,28,16,51,22.30
2014,08,28,16,52,22.40
2014,08,28,16,53,22.30
2014,08,28,16,54,22.30
2014,08,28,16,55,22.40
2014,08,28,16,56,22.50
2014,08,28,16,57,22.60
2014,08,28,16,58,22.70
2014,08,28,16,59,22.90
2014,08,28,17,00,23.00
2014,08,28,17,01,23.10
2014,08,28,17,02,23.10
2014,08,28,17,03,23.00
2014,08,28,17,04,23.00
2014,08,28,17,05,23.00
2014,08,28,17,06,23.10
2014,08,28,17,07,23.10
2014,08,28,17,08,23.20
2014,08,28,17,09,23.20
2014,08,28,17,10,23.20
2014,08,28,17,11,23.30
2014,08,28,17,12,23.30
2014,08,28,17,13,23.40
2014,08,28,17,14,23.40
2014,08,28,17,15,23.50
2014,08,28,17,16,23.60
2014,08,28,17,17,23.70
2014,08,28,17,18,23.80
2014,08,28,17,19,23.80